Total_Precipitation_Accumulation
0.00 0.00 0.00 0.00 0.00 0.00 0.00 0.00 0.00 0.01 0.01 0.00 0.01 0.05 0.08 0.11 0.11 0.16 0.21 0.25 0.34 0.49 0.71 0.90 1.07 1.17 1.36 1.56 1.80 1.77 1.82 1.99 2.16 2.38 2.38 2.54 2.85 3.22 3.43 3.56 3.62 3.61 3.53 3.50
0.00 0.00 0.00 0.00 0.00 0.00 0.00 0.00 0.01 0.01 0.01 0.01 0.04 0.10 0.14 0.16 0.17 0.22 0.31 0.33 0.34 0.42 0.64 0.95 1.12 1.33 1.53 1.70 1.90 2.01 2.07 2.38 2.82 3.21 3.63 4.01 4.24 4.25 4.40 4.42 4.36 4.22 4.07 3.91
0.00 0.00 0.00 0.00 0.00 0.00 0.00 0.00 0.01 0.02 0.03 0.05 0.08 0.21 0.27 0.27 0.29 0.32 0.36 0.37 0.42 0.51 0.67 0.86 1.08 1.36 1.56 1.71 1.92 2.06 2.33 2.96 3.75 4.12 4.44 4.99 5.27 5.05 4.82 4.62 4.49 4.39 4.37 4.31
0.00 0.00 0.00 0.00 0.00 0.00 0.00 0.01 0.01 0.02 0.03 0.08 0.10 0.26 0.42 0.45 0.47 0.41 0.44 0.49 0.54 0.61 0.73 0.91 1.12 1.35 1.63 1.92 2.00 2.17 2.68 3.43 4.08 4.55 5.07 5.58 5.79 5.79 5.64 5.19 4.71 4.26 3.91 3.72
0.00 0.00 0.00 0.01 0.01 0.00 0.01 0.00 0.01 0.02 0.04 0.07 0.09 0.24 0.54 0.64 0.68 0.66 0.64 0.61 0.57 0.58 0.76 0.89 1.03 1.23 1.41 1.67 2.03 2.29 2.83 3.52 4.19 4.87 5.50 5.89 6.09 6.05 5.66 4.89 4.13 3.69 3.40 3.11
0.00 0.00 0.01 0.01 0.01 0.00 0.00 0.01 0.01 0.02 0.04 0.08 0.08 0.20 0.60 0.89 0.98 0.98 0.87 0.82 0.71 0.58 0.63 0.75 0.93 1.02 1.28 1.54 1.83 2.25 2.57 3.19 3.86 4.43 4.94 5.10 5.26 5.20 4.77 4.30 3.79 3.41 2.99 2.50
0.01 0.01 0.01 0.01 0.01 0.01 0.01 0.02 0.06 0.11 0.14 0.15 0.12 0.24 0.64 0.97 0.97 0.89 0.85 0.82 0.77 0.61 0.59 0.79 1.01 0.95 1.16 1.46 1.81 2.19 2.59 2.98 3.48 3.98 4.43 4.67 4.78 4.59 4.12 3.70 3.30 2.86 2.42 2.02
0.03 0.03 0.02 0.01 0.01 0.02 0.01 0.02 0.10 0.18 0.22 0.26 0.27 0.49 0.84 0.96 0.89 0.77 0.73 0.68 0.67 0.64 0.63 0.74 0.90 0.96 1.17 1.38 1.67 2.02 2.36 2.68 2.88 3.07 3.39 3.60 3.74 3.59 3.27 2.80 2.36 2.08 1.83 1.58
0.10 0.10 0.04 0.02 0.01 0.01 0.02 0.03 0.04 0.07 0.10 0.25 0.52 0.76 1.07 1.04 0.87 0.82 0.76 0.69 0.69 0.68 0.65 0.70 0.82 0.92 1.14 1.42 1.67 1.92 2.07 2.22 2.38 2.49 2.54 2.59 2.69 2.59 2.35 2.09 1.81 1.55 1.30 1.10
0.11 0.15 0.06 0.02 0.02 0.02 0.02 0.03 0.04 0.08 0.17 0.33 0.60 0.93 1.20 1.35 1.24 1.06 0.86 0.78 0.71 0.71 0.68 0.69 0.75 0.82 0.91 1.04 1.31 1.52 1.64 1.72 1.78 1.83 1.87 1.89 1.89 1.82 1.72 1.57 1.38 1.16 1.00 0.85
0.13 0.17 0.10 0.03 0.03 0.04 0.03 0.04 0.07 0.10 0.13 0.29 0.60 1.12 1.36 1.61 1.64 1.36 1.04 0.91 0.87 0.84 0.75 0.70 0.70 0.69 0.73 0.77 0.93 1.13 1.27 1.31 1.38 1.44 1.41 1.36 1.41 1.37 1.29 1.24 1.15 1.00 0.89 0.78
0.14 0.18 0.17 0.09 0.07 0.06 0.05 0.06 0.09 0.17 0.18 0.22 0.53 1.32 1.72 1.83 1.71 1.39 1.19 1.06 1.01 0.90 0.77 0.68 0.62 0.56 0.59 0.65 0.70 0.80 0.90 0.91 0.95 0.99 1.00 1.05 1.09 1.11 1.05 0.96 0.86 0.72 0.63 0.59
0.10 0.20 0.36 0.35 0.27 0.14 0.09 0.09 0.10 0.11 0.16 0.26 0.56 1.52 2.11 2.04 1.83 1.53 1.28 1.20 1.18 1.06 0.87 0.71 0.57 0.49 0.51 0.58 0.62 0.65 0.69 0.71 0.72 0.71 0.75 0.82 0.86 0.88 0.83 0.74 0.70 0.63 0.53 0.50
0.08 0.19 0.45 0.81 0.62 0.34 0.19 0.12 0.11 0.15 0.27 0.37 0.59 1.06 1.37 1.49 1.54 1.53 1.59 1.65 1.49 1.21 0.99 0.78 0.66 0.57 0.56 0.62 0.61 0.61 0.62 0.60 0.61 0.63 0.67 0.73 0.73 0.74 0.72 0.63 0.54 0.50 0.45 0.45
0.13 0.25 0.27 0.31 0.32 0.30 0.26 0.20 0.17 0.19 0.25 0.48 0.77 1.06 1.37 1.44 1.46 1.49 1.63 1.56 1.36 1.19 1.04 0.89 0.79 0.75 0.68 0.62 0.58 0.60 0.67 0.66 0.66 0.69 0.68 0.68 0.64 0.63 0.62 0.59 0.52 0.46 0.41 0.38
0.15 0.23 0.24 0.29 0.26 0.30 0.29 0.28 0.27 0.31 0.38 0.58 0.87 1.27 1.54 1.52 1.46 1.49 1.56 1.50 1.34 1.14 1.00 0.91 0.88 0.88 0.79 0.70 0.62 0.59 0.66 0.70 0.72 0.73 0.70 0.68 0.65 0.62 0.57 0.53 0.50 0.45 0.38 0.31
0.18 0.29 0.38 0.41 0.28 0.41 0.60 0.48 0.45 0.48 0.52 0.70 1.01 1.25 1.37 1.40 1.38 1.43 1.51 1.57 1.47 1.26 1.14 1.11 1.13 1.12 0.99 0.86 0.76 0.73 0.74 0.76 0.77 0.80 0.77 0.75 0.68 0.61 0.56 0.47 0.41 0.40 0.38 0.31
0.19 0.28 0.37 0.38 0.48 0.79 0.76 0.44 0.47 0.53 0.57 0.63 0.74 0.91 1.06 1.14 1.17 1.30 1.46 1.55 1.53 1.45 1.41 1.40 1.37 1.24 1.12 1.01 0.93 0.85 0.79 0.83 0.88 0.84 0.79 0.72 0.61 0.53 0.49 0.46 0.40 0.35 0.32 0.30
0.11 0.24 0.37 0.47 0.70 0.90 0.75 0.46 0.40 0.59 0.70 0.58 0.63 0.65 0.67 0.69 0.77 1.10 1.28 1.35 1.39 1.42 1.39 1.29 1.21 1.15 1.09 0.99 0.92 0.81 0.75 0.74 0.76 0.72 0.67 0.60 0.55 0.52 0.49 0.48 0.45 0.40 0.34 0.29
0.10 0.18 0.40 0.52 0.74 1.01 0.90 0.42 0.24 0.48 0.94 0.71 0.63 0.61 0.62 0.68 0.76 0.84 0.90 0.94 1.02 1.07 1.08 1.05 1.01 0.97 0.91 0.84 0.75 0.68 0.63 0.60 0.58 0.56 0.54 0.48 0.46 0.48 0.48 0.43 0.41 0.37 0.34 0.30
0.33 0.35 0.45 0.56 0.74 0.92 0.48 0.24 0.34 0.82 1.11 0.80 0.67 0.63 0.67 0.75 0.68 0.54 0.56 0.66 0.77 0.86 0.90 0.88 0.87 0.86 0.74 0.61 0.56 0.56 0.53 0.49 0.42 0.38 0.43 0.44 0.43 0.43 0.43 0.39 0.38 0.37 0.35 0.34
0.41 0.51 0.53 0.60 0.81 0.95 0.36 0.26 0.52 0.66 0.56 0.57 0.57 0.55 0.53 0.46 0.37 0.39 0.43 0.49 0.54 0.65 0.76 0.75 0.69 0.62 0.53 0.47 0.49 0.51 0.48 0.40 0.33 0.34 0.40 0.44 0.42 0.37 0.36 0.37 0.38 0.36 0.34 0.32
0.34 0.38 0.47 0.62 0.78 0.60 0.25 0.24 0.29 0.28 0.35 0.37 0.36 0.36 0.30 0.27 0.29 0.31 0.36 0.41 0.45 0.50 0.58 0.59 0.54 0.49 0.47 0.47 0.49 0.46 0.42 0.36 0.35 0.37 0.41 0.40 0.37 0.35 0.34 0.35 0.36 0.35 0.32 0.27
0.32 0.20 0.25 0.42 0.48 0.31 0.20 0.15 0.16 0.18 0.24 0.25 0.29 0.36 0.29 0.25 0.26 0.28 0.31 0.36 0.43 0.45 0.45 0.46 0.44 0.42 0.45 0.45 0.42 0.40 0.34 0.34 0.38 0.41 0.40 0.38 0.37 0.36 0.32 0.29 0.28 0.29 0.27 0.23
0.26 0.23 0.30 0.36 0.32 0.25 0.21 0.14 0.10 0.12 0.15 0.19 0.27 0.37 0.35 0.28 0.28 0.28 0.29 0.34 0.39 0.43 0.45 0.45 0.43 0.39 0.36 0.37 0.33 0.30 0.29 0.31 0.35 0.35 0.34 0.34 0.34 0.32 0.30 0.24 0.20 0.20 0.17 0.11
0.20 0.24 0.31 0.33 0.25 0.23 0.21 0.14 0.10 0.15 0.21 0.24 0.30 0.39 0.33 0.29 0.27 0.26 0.28 0.30 0.34 0.39 0.41 0.42 0.37 0.34 0.30 0.27 0.26 0.26 0.24 0.23 0.29 0.32 0.29 0.26 0.26 0.25 0.21 0.20 0.19 0.13 0.08 0.05